"read_dt","SO2 (ppb)","flags","PMT voltage (V)","lamp voltage (V)","lamp intensity (Hz)","internal temp (C)","react chamber temp (C)","sample flow (l/min)","pres (mmHg)","SO2 bkg (ppb)","SO2 coefficient"
2016-02-01 00:00:00,1875E-3,5C000400,-0724,0834,12243,023.4,045.3,0.263,752.5,01.17,0.508
2016-02-01 00:01:00,1738E-3,5C000400,-0724,0835,12100,023.4,045.3,0.263,752.5,01.17,0.508
2016-02-01 00:02:00,1780E-3,5C000400,-0724,0834,12034,023.4,045.3,0.263,752.5,01.17,0.508
2016-02-01 00:03:00,1842E-3,5C000400,-0724,0834,12150,023.4,045.3,0.263,752.5,01.17,0.508
2016-02-01 00:04:00,1846E-3,5C000400,-0724,0834,12088,023.4,045.3,0.264,752.5,01.17,0.508
2016-02-01 00:05:00,1906E-3,5C000400,-0724,0834,12144,023.4,045.3,0.264,752.5,01.17,0.508
2016-02-01 00:06:00,1870E-3,5C000400,-0724,0834,12080,023.4,045.3,0.264,752.5,01.17,0.508
2016-02-01 00:07:00,1729E-3,5C000400,-0724,0834,12012,023.4,045.3,0.264,752.6,01.17,0.508
2016-02-01 00:08:00,1698E-3,5C000400,-0724,0835,12114,023.4,045.3,0.264,752.6,01.17,0.508
2016-02-01 00:09:00,1698E-3,5C000400,-0724,0834,12008,023.4,045.3,0.264,752.5,01.17,0.508
2016-02-01 00:10:00,1640E-3,5C000400,-0724,0834,12263,023.4,045.3,0.264,752.6,01.17,0.508
2016-02-01 00:11:00,1837E-3,5C000400,-0724,0834,12129,023.4,045.3,0.264,752.6,01.17,0.508
2016-02-01 00:12:00,1933E-3,5C000400,-0724,0833,12097,023.4,045.3,0.264,752.6,01.17,0.508
2016-02-01 00:13:00,1705E-3,5C000400,-0724,0834,12159,023.4,045.3,0.264,752.7,01.17,0.508
2016-02-01 00:14:00,1692E-3,5C000400,-0724,0834,12057,023.4,045.3,0.264,752.7,01.17,0.508
2016-02-01 00:15:00,1783E-3,5C000400,-0724,0835,12000,023.4,045.3,0.264,752.7,01.17,0.508
2016-02-01 00:16:00,1876E-3,5C000400,-0724,0834,12225,023.4,045.3,0.264,752.7,01.17,0.508
2016-02-01 00:17:00,1834E-3,5C000400,-0724,0834,12034,023.4,045.3,0.263,752.7,01.17,0.508
2016-02-01 00:18:00,1677E-3,5C000400,-0724,0834,12284,023.4,045.3,0.263,752.8,01.17,0.508
2016-02-01 00:19:00,1881E-3,5C000400,-0724,0834,12147,023.4,045.3,0.263,752.8,01.17,0.508
2016-02-01 00:20:00,1905E-3,5C000400,-0724,0833,12222,023.4,045.3,0.264,752.8,01.17,0.508
2016-02-01 00:21:00,1866E-3,5C000400,-0724,0834,12137,023.4,045.3,0.264,752.8,01.17,0.508
2016-02-01 00:22:00,1822E-3,5C000400,-0724,0834,12191,023.4,045.3,0.264,752.8,01.17,0.508
2016-02-01 00:23:00,1804E-3,5C000400,-0724,0835,12110,023.4,045.3,0.264,752.8,01.17,0.508
2016-02-01 00:24:00,1700E-3,5C000400,-0724,0834,12141,023.4,045.3,0.264,752.9,01.17,0.508
2016-02-01 00:25:00,1761E-3,5C000400,-0724,0835,12136,023.4,045.3,0.264,752.9,01.17,0.508
2016-02-01 00:26:00,1767E-3,5C000400,-0724,0835,12229,023.4,045.3,0.264,752.9,01.17,0.508
2016-02-01 00:27:00,1789E-3,5C000400,-0724,0834,12366,023.4,045.3,0.263,752.9,01.17,0.508
2016-02-01 00:28:00,1742E-3,5C000400,-0724,0834,12274,023.4,045.3,0.264,752.9,01.17,0.508
2016-02-01 00:29:00,1694E-3,5C000400,-0724,0833,12148,023.4,045.3,0.264,752.9,01.17,0.508
2016-02-01 00:30:00,1892E-3,5C000400,-0724,0835,12150,023.4,045.3,0.264,753.0,01.17,0.508
2016-02-01 00:31:00,1867E-3,5C000400,-0724,0833,12164,023.4,045.3,0.264,752.9,01.17,0.508
2016-02-01 00:32:00,1816E-3,5C000400,-0724,0834,12165,023.4,045.3,0.264,752.9,01.17,0.508
2016-02-01 00:33:00,1756E-3,5C000400,-0724,0835,12264,023.4,045.3,0.264,753.0,01.17,0.508
2016-02-01 00:34:00,1633E-3,5C000400,-0724,0834,12218,023.4,045.3,0.264,753.0,01.17,0.508
2016-02-01 00:35:00,1834E-3,5C000400,-0724,0834,11957,023.4,045.3,0.263,752.9,01.17,0.508
2016-02-01 00:36:00,1773E-3,5C000400,-0724,0833,12127,023.4,045.3,0.263,752.9,01.17,0.508
2016-02-01 00:37:00,1779E-3,5C000400,-0724,0834,12218,023.4,045.3,0.264,753.0,01.17,0.508
2016-02-01 00:38:00,1668E-3,5C000400,-0724,0835,12213,023.4,045.3,0.264,753.0,01.17,0.508
2016-02-01 00:39:00,1795E-3,5C000400,-0724,0835,12004,023.4,045.3,0.264,753.0,01.17,0.508
2016-02-01 00:40:00,1663E-3,5C000400,-0724,0835,12176,023.4,045.3,0.264,752.9,01.17,0.508
2016-02-01 00:41:00,1742E-3,5C000400,-0724,0834,12091,023.4,045.3,0.264,753.0,01.17,0.508
2016-02-01 00:42:00,1799E-3,5C000400,-0724,0834,12175,023.4,045.3,0.264,752.9,01.17,0.508
2016-02-01 00:43:00,1847E-3,5C000400,-0724,0834,12094,023.4,045.3,0.264,752.9,01.17,0.508
2016-02-01 00:44:00,1740E-3,5C000400,-0724,0834,12023,023.4,045.3,0.264,752.9,01.17,0.508
2016-02-01 00:45:00,1850E-3,5C000400,-0724,0835,12238,023.4,045.3,0.264,752.9,01.17,0.508
2016-02-01 00:46:00,1852E-3,5C000400,-0724,0834,12244,023.5,045.3,0.264,753.0,01.17,0.508
2016-02-01 00:47:00,1771E-3,5C000400,-0724,0834,12135,023.5,045.3,0.264,753.0,01.17,0.508
2016-02-01 00:48:00,1630E-3,5C000400,-0724,0835,12180,023.5,045.3,0.264,753.0,01.17,0.508
2016-02-01 00:49:00,1776E-3,5C000400,-0724,0834,12156,023.4,045.3,0.264,753.0,01.17,0.508
2016-02-01 00:50:00,1753E-3,5C000400,-0724,0834,12050,023.5,045.3,0.264,753.0,01.17,0.508
2016-02-01 00:51:00,1839E-3,5C000400,-0724,0834,12211,023.5,045.3,0.264,753.0,01.17,0.508
2016-02-01 00:52:00,1776E-3,5C000400,-0724,0834,12130,023.5,045.3,0.264,753.0,01.17,0.508
2016-02-01 00:53:00,1837E-3,5C000400,-0724,0834,12024,023.5,045.3,0.264,753.0,01.17,0.508
2016-02-01 00:54:00,1737E-3,5C000400,-0724,0835,12197,023.5,045.3,0.263,752.9,01.17,0.508
2016-02-01 00:55:00,1851E-3,5C000400,-0724,0834,12079,023.5,045.3,0.264,753.0,01.17,0.508
2016-02-01 00:56:00,1761E-3,5C000400,-0724,0834,12196,023.5,045.3,0.263,753.0,01.17,0.508
2016-02-01 00:57:00,1888E-3,5C000400,-0724,0834,12040,023.5,045.3,0.264,752.9,01.17,0.508
2016-02-01 00:58:00,1774E-3,5C000400,-0724,0834,12136,023.5,045.3,0.263,753.0,01.17,0.508
2016-02-01 00:59:00,1803E-3,5C000400,-0724,0834,12032,023.5,045.3,0.263,753.0,01.17,0.508
2016-02-01 01:00:00,1669E-3,5C000400,-0724,0834,12095,023.5,045.3,0.263,753.0,01.17,0.508
2016-02-01 01:01:00,1819E-3,5C000400,-0724,0834,12189,023.5,045.3,0.263,753.0,01.17,0.508
2016-02-01 01:02:00,1808E-3,5C000400,-0724,0834,12145,023.5,045.3,0.263,753.0,01.17,0.508
2016-02-01 01:03:00,1883E-3,5C000400,-0724,0834,12013,023.5,045.3,0.264,753.0,01.17,0.508
2016-02-01 01:04:00,1783E-3,5C000400,-0724,0834,12080,023.5,045.3,0.264,753.1,01.17,0.508
2016-02-01 01:05:00,1768E-3,5C000400,-0724,0834,12249,023.5,045.3,0.264,753.0,01.17,0.508
2016-02-01 01:06:00,1867E-3,5C000400,-0724,0835,12200,023.5,045.3,0.264,753.1,01.17,0.508
2016-02-01 01:07:00,1764E-3,5C000400,-0724,0835,12252,023.5,045.3,0.264,753.1,01.17,0.508
2016-02-01 01:08:00,1838E-3,5C000400,-0724,0834,12162,023.5,045.3,0.264,753.1,01.17,0.508
2016-02-01 01:09:00,1739E-3,5C000400,-0724,0833,12116,023.5,045.3,0.264,753.1,01.17,0.508
2016-02-01 01:10:00,1750E-3,5C000400,-0724,0834,12215,023.5,045.3,0.264,753.1,01.17,0.508
2016-02-01 01:11:00,1783E-3,5C000400,-0724,0834,12265,023.5,045.3,0.264,753.1,01.17,0.508
2016-02-01 01:12:00,1827E-3,5C000400,-0724,0833,12275,023.5,045.3,0.264,753.1,01.17,0.508
2016-02-01 01:13:00,1793E-3,5C000400,-0724,0833,12059,023.5,045.3,0.263,753.1,01.17,0.508
2016-02-01 01:14:00,1864E-3,5C000400,-0724,0834,12220,023.5,045.3,0.263,753.1,01.17,0.508
2016-02-01 01:15:00,1824E-3,5C000400,-0724,0834,12149,023.5,045.3,0.263,753.1,01.17,0.508
2016-02-01 01:16:00,1673E-3,5C000400,-0724,0833,12148,023.5,045.3,0.263,753.1,01.17,0.508
2016-02-01 01:17:00,1826E-3,5C000400,-0724,0834,12162,023.5,045.3,0.264,753.1,01.17,0.508
2016-02-01 01:18:00,1753E-3,5C000400,-0724,0834,12218,023.5,045.3,0.264,753.1,01.17,0.508
2016-02-01 01:19:00,1687E-3,5C000400,-0724,0834,12083,023.5,045.3,0.264,753.1,01.17,0.508
2016-02-01 01:20:00,1881E-3,5C000400,-0724,0834,12110,023.5,045.3,0.264,753.1,01.17,0.508
2016-02-01 01:21:00,1840E-3,5C000400,-0724,0834,12194,023.5,045.3,0.264,753.1,01.17,0.508
2016-02-01 01:22:00,1759E-3,5C000400,-0724,0834,12046,023.5,045.3,0.264,753.1,01.17,0.508
2016-02-01 01:23:00,1879E-3,5C000400,-0724,0834,12216,023.5,045.3,0.264,753.1,01.17,0.508
2016-02-01 01:24:00,1777E-3,5C000400,-0724,0834,11982,023.5,045.3,0.264,753.1,01.17,0.508
2016-02-01 01:25:00,1838E-3,5C000400,-0724,0834,12075,023.5,045.3,0.264,753.1,01.17,0.508
2016-02-01 01:26:00,1885E-3,5C000400,-0724,0834,12178,023.5,045.3,0.264,753.1,01.17,0.508
2016-02-01 01:27:00,1766E-3,5C000400,-0724,0834,12125,023.5,045.3,0.264,753.1,01.17,0.508
2016-02-01 01:28:00,1778E-3,5C000400,-0724,0835,12051,023.5,045.3,0.264,753.0,01.17,0.508
2016-02-01 01:29:00,1722E-3,5C000400,-0724,0834,12179,023.5,045.3,0.263,753.0,01.17,0.508
2016-02-01 01:30:00,1809E-3,5C000400,-0724,0834,12024,023.5,045.3,0.263,753.0,01.17,0.508
2016-02-01 01:31:00,1941E-3,5C000400,-0724,0834,12152,023.5,045.3,0.263,753.0,01.17,0.508
2016-02-01 01:32:00,1785E-3,5C000400,-0724,0834,12268,023.5,045.3,0.263,753.1,01.17,0.508
2016-02-01 01:33:00,1823E-3,5C000400,-0724,0834,12147,023.5,045.3,0.263,753.1,01.17,0.508
2016-02-01 01:34:00,1888E-3,5C000400,-0724,0834,12160,023.5,045.3,0.263,753.1,01.17,0.508
2016-02-01 01:35:00,1831E-3,5C000400,-0724,0834,12077,023.5,045.3,0.263,753.1,01.17,0.508
2016-02-01 01:36:00,1861E-3,5C000400,-0724,0834,12139,023.5,045.3,0.263,753.1,01.17,0.508
2016-02-01 01:37:00,1738E-3,5C000400,-0724,0834,12131,023.5,045.3,0.263,753.1,01.17,0.508
2016-02-01 01:38:00,1702E-3,5C000400,-0724,0834,12121,023.5,045.3,0.263,753.1,01.17,0.508
2016-02-01 01:39:00,1859E-3,5C000400,-0724,0834,12072,023.5,045.3,0.263,753.1,01.17,0.508
2016-02-01 01:40:00,1770E-3,5C000400,-0724,0835,12162,023.5,045.3,0.263,753.2,01.17,0.508
2016-02-01 01:41:00,1854E-3,5C000400,-0724,0833,12048,023.5,045.3,0.263,753.2,01.17,0.508
2016-02-01 01:42:00,1805E-3,5C000400,-0724,0834,12231,023.5,045.3,0.264,753.2,01.17,0.508
2016-02-01 01:43:00,1767E-3,5C000400,-0724,0834,12218,023.5,045.3,0.264,753.2,01.17,0.508
2016-02-01 01:44:00,1730E-3,5C000400,-0724,0834,11963,023.5,045.3,0.264,753.3,01.17,0.508
2016-02-01 01:45:00,1826E-3,5C000400,-0724,0835,12135,023.5,045.3,0.264,753.3,01.17,0.508
2016-02-01 01:46:00,1753E-3,5C000400,-0724,0834,12045,023.6,045.3,0.264,753.3,01.17,0.508
2016-02-01 01:47:00,1780E-3,5C000400,-0724,0834,12118,023.5,045.3,0.264,753.3,01.17,0.508
2016-02-01 01:48:00,1903E-3,5C000400,-0724,0834,12077,023.5,045.3,0.264,753.3,01.17,0.508
2016-02-01 01:49:00,1877E-3,5C000400,-0724,0834,12247,023.5,045.3,0.264,753.3,01.17,0.508
2016-02-01 01:50:00,1843E-3,5C000400,-0724,0834,12044,023.5,045.3,0.263,753.2,01.17,0.508
2016-02-01 01:51:00,1685E-3,5C000400,-0724,0834,12153,023.5,045.3,0.263,753.2,01.17,0.508
2016-02-01 01:52:00,1630E-3,5C000400,-0724,0834,12231,023.5,045.3,0.263,753.2,01.17,0.508
2016-02-01 01:53:00,1828E-3,5C000400,-0724,0834,12061,023.5,045.3,0.263,753.1,01.17,0.508
2016-02-01 01:54:00,1790E-3,5C000400,-0724,0834,12159,023.5,045.3,0.263,753.2,01.17,0.508
2016-02-01 01:55:00,1780E-3,5C000400,-0724,0834,12109,023.5,045.3,0.263,753.1,01.17,0.508
2016-02-01 01:56:00,1727E-3,5C000400,-0724,0834,12205,023.5,045.3,0.264,753.2,01.17,0.508
2016-02-01 01:57:00,1746E-3,5C000400,-0724,0834,12158,023.5,045.3,0.264,753.2,01.17,0.508
2016-02-01 01:58:00,1771E-3,5C000400,-0724,0834,12221,023.5,045.3,0.264,753.1,01.17,0.508
2016-02-01 01:59:00,1876E-3,5C000400,-0724,0834,12052,023.5,045.3,0.264,753.3,01.17,0.508
2016-02-01 02:00:00,1709E-3,5C000400,-0724,0834,12170,023.5,045.3,0.264,753.3,01.17,0.508
2016-02-01 02:01:00,1710E-3,5C000400,-0724,0833,12215,023.5,045.3,0.263,753.3,01.17,0.508
2016-02-01 02:02:00,1803E-3,5C000400,-0724,0833,12260,023.6,045.3,0.263,753.2,01.17,0.508
2016-02-01 02:03:00,1612E-3,5C000400,-0724,0834,12109,023.5,045.3,0.263,753.2,01.17,0.508
2016-02-01 02:04:00,1700E-3,5C000400,-0724,0835,12117,023.5,045.3,0.263,753.3,01.17,0.508
2016-02-01 02:05:00,1798E-3,5C000400,-0724,0833,12165,023.5,045.3,0.264,753.3,01.17,0.508
2016-02-01 02:06:00,1838E-3,5C000400,-0724,0834,12110,023.5,045.3,0.264,753.3,01.17,0.508
2016-02-01 02:07:00,1866E-3,5C000400,-0724,0834,12176,023.5,045.3,0.264,753.2,01.17,0.508
2016-02-01 02:08:00,1838E-3,5C000400,-0724,0835,12313,023.5,045.3,0.264,753.3,01.17,0.508
2016-02-01 02:09:00,1847E-3,5C000400,-0724,0834,12122,023.5,045.3,0.264,753.3,01.17,0.508
2016-02-01 02:10:00,1694E-3,5C000400,-0724,0834,12223,023.5,045.3,0.263,753.2,01.17,0.508
2016-02-01 02:11:00,1816E-3,5C000400,-0724,0834,12031,023.6,045.3,0.263,753.2,01.17,0.508
2016-02-01 02:12:00,1872E-3,5C000400,-0724,0834,12243,023.6,045.3,0.263,753.1,01.17,0.508
2016-02-01 02:13:00,1814E-3,5C000400,-0724,0833,12143,023.5,045.3,0.263,753.1,01.17,0.508
2016-02-01 02:14:00,1788E-3,5C000400,-0724,0834,12132,023.6,045.3,0.263,753.2,01.17,0.508
2016-02-01 02:15:00,1838E-3,5C000400,-0724,0834,12187,023.5,045.3,0.263,753.1,01.17,0.508
2016-02-01 02:16:00,1798E-3,5C000400,-0724,0835,12161,023.6,045.3,0.263,753.1,01.17,0.508
2016-02-01 02:17:00,1697E-3,5C000400,-0724,0834,12118,023.5,045.3,0.263,753.2,01.17,0.508
2016-02-01 02:18:00,1750E-3,5C000400,-0724,0834,12243,023.5,045.3,0.263,753.1,01.17,0.508
2016-02-01 02:19:00,1846E-3,5C000400,-0724,0835,12136,023.6,045.3,0.263,753.1,01.17,0.508
2016-02-01 02:20:00,1738E-3,5C000400,-0724,0835,12251,023.6,045.3,0.263,753.0,01.17,0.508
2016-02-01 02:21:00,1743E-3,5C000400,-0724,0835,12279,023.6,045.3,0.263,753.0,01.17,0.508
2016-02-01 02:22:00,1783E-3,5C000400,-0724,0834,12219,023.5,045.3,0.263,753.0,01.17,0.508
2016-02-01 02:23:00,1876E-3,5C000400,-0724,0834,12219,023.5,045.3,0.263,753.0,01.17,0.508
2016-02-01 02:24:00,1799E-3,5C000400,-0724,0834,12123,023.5,045.3,0.263,752.9,01.17,0.508
2016-02-01 02:25:00,1863E-3,5C000400,-0724,0834,12217,023.5,045.3,0.263,753.0,01.17,0.508
2016-02-01 02:26:00,1782E-3,5C000400,-0724,0834,12262,023.5,045.3,0.263,753.0,01.17,0.508
2016-02-01 02:27:00,1805E-3,5C000400,-0724,0834,11978,023.5,045.3,0.263,753.0,01.17,0.508
2016-02-01 02:28:00,1812E-3,5C000400,-0724,0834,12195,023.5,045.3,0.263,753.0,01.17,0.508
2016-02-01 02:29:00,1794E-3,5C000400,-0724,0835,12134,023.5,045.3,0.263,753.0,01.17,0.508
2016-02-01 02:30:00,1816E-3,5C000400,-0724,0834,12030,023.5,045.3,0.263,753.0,01.17,0.508
2016-02-01 02:31:00,1844E-3,5C000400,-0724,0834,12224,023.5,045.3,0.263,753.0,01.17,0.508
2016-02-01 02:32:00,1854E-3,5C000400,-0724,0834,12153,023.5,045.3,0.263,753.0,01.17,0.508
2016-02-01 02:33:00,1709E-3,5C000400,-0724,0833,12004,023.5,045.3,0.263,753.0,01.17,0.508
2016-02-01 02:34:00,1853E-3,5C000400,-0724,0834,12190,023.5,045.3,0.263,753.1,01.17,0.508
2016-02-01 02:35:00,1790E-3,5C000400,-0724,0834,12099,023.5,045.3,0.263,753.1,01.17,0.508
2016-02-01 02:36:00,1835E-3,5C000400,-0724,0834,12263,023.5,045.3,0.263,753.1,01.17,0.508
2016-02-01 02:37:00,1870E-3,5C000400,-0724,0834,12143,023.6,045.3,0.263,753.1,01.17,0.508
2016-02-01 02:38:00,1706E-3,5C000400,-0724,0834,12124,023.5,045.3,0.263,753.0,01.17,0.508
2016-02-01 02:39:00,1820E-3,5C000400,-0724,0834,12190,023.5,045.3,0.263,753.1,01.17,0.508
2016-02-01 02:40:00,1767E-3,5C000400,-0724,0834,11972,023.5,045.3,0.263,753.0,01.17,0.508
2016-02-01 02:41:00,1799E-3,5C000400,-0724,0834,12076,023.5,045.3,0.263,753.1,01.17,0.508
2016-02-01 02:42:00,1742E-3,5C000400,-0724,0834,12088,023.5,045.3,0.264,753.1,01.17,0.508
2016-02-01 02:43:00,1747E-3,5C000400,-0724,0834,12195,023.5,045.3,0.264,753.2,01.17,0.508
2016-02-01 02:44:00,1770E-3,5C000400,-0724,0834,12101,023.5,045.3,0.264,753.2,01.17,0.508
2016-02-01 02:45:00,1807E-3,5C000400,-0724,0834,11981,023.5,045.3,0.264,753.3,01.17,0.508
2016-02-01 02:46:00,1789E-3,5C000400,-0724,0833,12202,023.5,045.3,0.264,753.3,01.17,0.508
2016-02-01 02:47:00,1802E-3,5C000400,-0724,0833,12207,023.5,045.3,0.264,753.3,01.17,0.508
2016-02-01 02:48:00,1806E-3,5C000400,-0724,0833,12204,023.5,045.3,0.264,753.3,01.17,0.508
2016-02-01 02:49:00,1754E-3,5C000400,-0724,0834,12250,023.5,045.3,0.264,753.3,01.17,0.508
2016-02-01 02:50:00,1771E-3,5C000400,-0724,0834,12180,023.5,045.3,0.264,753.3,01.17,0.508
2016-02-01 02:51:00,1782E-3,5C000400,-0724,0835,12295,023.5,045.3,0.264,753.4,01.17,0.508
2016-02-01 02:52:00,1822E-3,5C000400,-0724,0834,12063,023.5,045.3,0.263,753.4,01.17,0.508
2016-02-01 02:53:00,1827E-3,5C000400,-0724,0834,12155,023.5,045.3,0.263,753.5,01.17,0.508
2016-02-01 02:54:00,1818E-3,5C000400,-0724,0834,12279,023.5,045.3,0.263,753.4,01.17,0.508
2016-02-01 02:55:00,1845E-3,5C000400,-0724,0834,12220,023.5,045.3,0.263,753.4,01.17,0.508
2016-02-01 02:56:00,1825E-3,5C000400,-0724,0834,12125,023.5,045.3,0.263,753.5,01.17,0.508
2016-02-01 02:57:00,1826E-3,5C000400,-0724,0834,12139,023.5,045.3,0.263,753.4,01.17,0.508
2016-02-01 02:58:00,1797E-3,5C000400,-0724,0834,12253,023.5,045.3,0.263,753.5,01.17,0.508
2016-02-01 02:59:00,1766E-3,5C000400,-0724,0834,12206,023.5,045.3,0.263,753.5,01.17,0.508
2016-02-01 03:00:00,1826E-3,5C000400,-0724,0834,12133,023.5,045.3,0.263,753.5,01.17,0.508
2016-02-01 03:01:00,1706E-3,5C000400,-0724,0834,12272,023.5,045.3,0.263,753.5,01.17,0.508
2016-02-01 03:02:00,1649E-3,5C000400,-0724,0833,12094,023.5,045.3,0.263,753.5,01.17,0.508
2016-02-01 03:03:00,1720E-3,5C000400,-0724,0834,12109,023.5,045.3,0.263,753.4,01.17,0.508
2016-02-01 03:04:00,1881E-3,5C000400,-0724,0835,12152,023.5,045.3,0.263,753.6,01.17,0.508
2016-02-01 03:05:00,1783E-3,5C000400,-0724,0834,12268,023.5,045.3,0.263,753.6,01.17,0.508
2016-02-01 03:06:00,1769E-3,5C000400,-0724,0834,12140,023.5,045.3,0.263,753.6,01.17,0.508
2016-02-01 03:07:00,1901E-3,5C000400,-0724,0834,12134,023.5,045.3,0.263,753.6,01.17,0.508
2016-02-01 03:08:00,1778E-3,5C000400,-0724,0834,12205,023.5,045.3,0.263,753.6,01.17,0.508
2016-02-01 03:09:00,1785E-3,5C000400,-0724,0834,12207,023.5,045.3,0.263,753.6,01.17,0.508
2016-02-01 03:10:00,1706E-3,5C000400,-0724,0834,12177,023.5,045.3,0.263,753.6,01.17,0.508
2016-02-01 03:11:00,1893E-3,5C000400,-0724,0834,12227,023.5,045.3,0.263,753.6,01.17,0.508
2016-02-01 03:12:00,1775E-3,5C000400,-0724,0834,12159,023.6,045.3,0.263,753.6,01.17,0.508
2016-02-01 03:13:00,1825E-3,5C000400,-0724,0834,12157,023.5,045.3,0.263,753.6,01.17,0.508
2016-02-01 03:14:00,1779E-3,5C000400,-0724,0834,12168,023.5,045.3,0.263,753.6,01.17,0.508
2016-02-01 03:15:00,1891E-3,5C000400,-0724,0834,12219,023.5,045.3,0.263,753.6,01.17,0.508
2016-02-01 03:16:00,1729E-3,5C000400,-0724,0834,12164,023.5,045.3,0.263,753.5,01.17,0.508
2016-02-01 03:17:00,1812E-3,5C000400,-0724,0834,12084,023.5,045.3,0.264,753.5,01.17,0.508
2016-02-01 03:18:00,1828E-3,5C000400,-0724,0833,12046,023.5,045.3,0.264,753.5,01.17,0.508
2016-02-01 03:19:00,1650E-3,5C000400,-0724,0833,12215,023.5,045.3,0.264,753.4,01.17,0.508
2016-02-01 03:20:00,1825E-3,5C000400,-0724,0834,12336,023.5,045.3,0.264,753.4,01.17,0.508
2016-02-01 03:21:00,1926E-3,5C000400,-0724,0834,12116,023.5,045.3,0.264,753.3,01.17,0.508
2016-02-01 03:22:00,1738E-3,5C000400,-0724,0834,12131,023.5,045.3,0.264,753.3,01.17,0.508
2016-02-01 03:23:00,1819E-3,5C000400,-0724,0834,12043,023.5,045.3,0.264,753.2,01.17,0.508
2016-02-01 03:24:00,1842E-3,5C000400,-0724,0834,12057,023.5,045.3,0.264,753.2,01.17,0.508
2016-02-01 03:25:00,1876E-3,5C000400,-0724,0835,12128,023.5,045.3,0.264,753.2,01.17,0.508
2016-02-01 03:26:00,1722E-3,5C000400,-0724,0835,12161,023.5,045.3,0.263,753.4,01.17,0.508
2016-02-01 03:27:00,1829E-3,5C000400,-0724,0834,12167,023.5,045.3,0.263,753.4,01.17,0.508
2016-02-01 03:28:00,1718E-3,5C000400,-0724,0834,12115,023.5,045.3,0.263,753.5,01.17,0.508
2016-02-01 03:29:00,1863E-3,5C000400,-0724,0834,12144,023.5,045.3,0.263,753.5,01.17,0.508
2016-02-01 03:30:00,1759E-3,5C000400,-0724,0834,12102,023.5,045.3,0.263,753.5,01.17,0.508
2016-02-01 03:31:00,1907E-3,5C000400,-0724,0834,12193,023.5,045.3,0.263,753.5,01.17,0.508
2016-02-01 03:32:00,1891E-3,5C000400,-0724,0834,12124,023.5,045.3,0.263,753.5,01.17,0.508
2016-02-01 03:33:00,1781E-3,5C000400,-0724,0834,12114,023.5,045.3,0.264,753.6,01.17,0.508
2016-02-01 03:34:00,1709E-3,5C000400,-0724,0834,12211,023.5,045.3,0.264,753.6,01.17,0.508
2016-02-01 03:35:00,1920E-3,5C000400,-0724,0834,12072,023.5,045.3,0.264,753.6,01.17,0.508
2016-02-01 03:36:00,1828E-3,5C000400,-0724,0834,12156,023.5,045.3,0.264,753.6,01.17,0.508
2016-02-01 03:37:00,1812E-3,5C000400,-0724,0834,12143,023.5,045.3,0.264,753.5,01.17,0.508
2016-02-01 03:38:00,1808E-3,5C000400,-0724,0834,12232,023.5,045.3,0.264,753.6,01.17,0.508
2016-02-01 03:39:00,1749E-3,5C000400,-0724,0834,12046,023.5,045.3,0.264,753.7,01.17,0.508
2016-02-01 03:40:00,1740E-3,5C000400,-0724,0834,12308,023.5,045.3,0.264,753.7,01.17,0.508
2016-02-01 03:41:00,1778E-3,5C000400,-0724,0834,12046,023.5,045.3,0.264,753.8,01.17,0.508
2016-02-01 03:42:00,1967E-3,5C000400,-0724,0834,12301,023.5,045.3,0.264,753.7,01.17,0.508
2016-02-01 03:43:00,1916E-3,5C000400,-0724,0834,12145,023.5,045.3,0.264,753.7,01.17,0.508
2016-02-01 03:44:00,1854E-3,5C000400,-0724,0834,12126,023.5,045.3,0.264,753.7,01.17,0.508
2016-02-01 03:45:00,1806E-3,5C000400,-0724,0834,12293,023.5,045.3,0.264,753.8,01.17,0.508
2016-02-01 03:46:00,1781E-3,5C000400,-0724,0834,12092,023.5,045.3,0.264,753.8,01.17,0.508
2016-02-01 03:47:00,1818E-3,5C000400,-0724,0834,12118,023.5,045.3,0.264,753.8,01.17,0.508
2016-02-01 03:48:00,1832E-3,5C000400,-0724,0834,12023,023.5,045.3,0.264,753.8,01.17,0.508
2016-02-01 03:49:00,1817E-3,5C000400,-0724,0833,12067,023.6,045.3,0.264,753.8,01.17,0.508
2016-02-01 03:50:00,1603E-3,5C000400,-0724,0835,12108,023.5,045.3,0.264,753.8,01.17,0.508
2016-02-01 03:51:00,1821E-3,5C000400,-0724,0834,12124,023.5,045.3,0.264,753.8,01.17,0.508
2016-02-01 03:52:00,1740E-3,5C000400,-0724,0833,12125,023.5,045.3,0.264,753.8,01.17,0.508
2016-02-01 03:53:00,1789E-3,5C000400,-0724,0834,12117,023.5,045.3,0.264,753.8,01.17,0.508
2016-02-01 03:54:00,1840E-3,5C000400,-0724,0834,12133,023.5,045.3,0.264,753.8,01.17,0.508
2016-02-01 03:55:00,1862E-3,5C000400,-0724,0834,12104,023.5,045.3,0.264,753.8,01.17,0.508
2016-02-01 03:56:00,1694E-3,5C000400,-0724,0834,12119,023.5,045.3,0.264,753.8,01.17,0.508
2016-02-01 03:57:00,1865E-3,5C000400,-0724,0834,12237,023.6,045.3,0.264,753.9,01.17,0.508
2016-02-01 03:58:00,1777E-3,5C000400,-0724,0834,12086,023.5,045.3,0.264,753.9,01.17,0.508
2016-02-01 03:59:00,1804E-3,5C000400,-0724,0834,12150,023.6,045.3,0.264,753.9,01.17,0.508
2016-02-01 04:00:00,1671E-3,5C000400,-0724,0835,12133,023.6,045.3,0.264,753.9,01.17,0.508
2016-02-01 04:01:00,1861E-3,5C000400,-0724,0835,12150,023.6,045.3,0.264,753.8,01.17,0.508
2016-02-01 04:02:00,1823E-3,5C000400,-0724,0834,12166,023.6,045.3,0.264,753.9,01.17,0.508
2016-02-01 04:03:00,1858E-3,5C000400,-0724,0834,12153,023.6,045.3,0.264,753.8,01.17,0.508
2016-02-01 04:04:00,1820E-3,5C000400,-0724,0834,12190,023.6,045.3,0.264,753.9,01.17,0.508
2016-02-01 04:05:00,1812E-3,5C000400,-0724,0835,12239,023.6,045.3,0.264,753.9,01.17,0.508
2016-02-01 04:06:00,1806E-3,5C000400,-0724,0834,12163,023.6,045.3,0.263,753.9,01.17,0.508
2016-02-01 04:07:00,1870E-3,5C000400,-0724,0834,12185,023.6,045.3,0.263,753.9,01.17,0.508
2016-02-01 04:08:00,1933E-3,5C000400,-0724,0834,12146,023.6,045.3,0.264,753.9,01.17,0.508
2016-02-01 04:09:00,1815E-3,5C000400,-0724,0834,12060,023.6,045.3,0.263,753.9,01.17,0.508
2016-02-01 04:10:00,1787E-3,5C000400,-0724,0833,12198,023.6,045.3,0.263,753.9,01.17,0.508
2016-02-01 04:11:00,1764E-3,5C000400,-0724,0834,12114,023.6,045.3,0.263,753.9,01.17,0.508
2016-02-01 04:12:00,1681E-3,5C000400,-0724,0834,12217,023.6,045.3,0.263,753.9,01.17,0.508
2016-02-01 04:13:00,1785E-3,5C000400,-0724,0835,12130,023.6,045.3,0.263,753.9,01.17,0.508
2016-02-01 04:14:00,1910E-3,5C000400,-0724,0834,12229,023.6,045.3,0.263,753.9,01.17,0.508
2016-02-01 04:15:00,1780E-3,5C000400,-0724,0834,12195,023.6,045.3,0.263,753.9,01.17,0.508
2016-02-01 04:16:00,1769E-3,5C000400,-0724,0834,12306,023.6,045.3,0.263,753.8,01.17,0.508
2016-02-01 04:17:00,1844E-3,5C000400,-0724,0834,12282,023.6,045.3,0.263,753.8,01.17,0.508
2016-02-01 04:18:00,1810E-3,5C000400,-0724,0835,12092,023.6,045.3,0.263,753.8,01.17,0.508
2016-02-01 04:19:00,1760E-3,5C000400,-0724,0834,12296,023.6,045.3,0.264,753.8,01.17,0.508
2016-02-01 04:20:00,1794E-3,5C000400,-0724,0833,12113,023.6,045.3,0.264,753.8,01.17,0.508